Location: Gälforsberget
(66.6500°N, 22.4167°E)
Time: 08:07:07
(UTC+00:00)

Cosmos 2333 Rocket - Pass Details

Date: 11 April 2026
Orbit: 842 x 860 km, 70.8° (Epoch: 9 May)

Event Time Altitude Azimuth Distance (km) Brightness Sun altitude
Rises 21:31:16 0° 268° (W) 3,406 5.5 -14.0°
Reaches altitude 10° 21:33:46 10° 273° (W) 2,471 4.8 -14.0°
Maximum altitude 21:39:22 59° 353° (N) 978 2.9 -14.2°
Drops below altitude 10° 21:44:59 10° 73° (ENE) 2,474 4.7 -14.3°
Sets 21:47:29 0° 77° (ENE) 3,411 5.4 -14.3°
